User: anonymous   Login
Location: *
(10.4782°N, 67.2163°W)
Time: 07:41:04
(UTC+00:00)
Language:

COSMOS 2455 - Orbit

View from above orbital plane
View from above orbital plane
View from above satellite
View from above satellite

Ground track
Ground track

The orbit data is extracted from the following two-line orbital elements,

1 36095U 09063A   24202.18700923  .00000032  00000-0  76647-4 0  9990
2 36095  67.1476 147.8543 0009317 270.6873  89.3144 13.96914591747961
Epoch (UTC): 20 July 2024 04:29:17
Eccentricity: 0.0009317
inclination: 67.1476°
perigee height: 898 km
apogee height: 911 km
right ascension of ascending node: 147.8543°
argument of perigee: 270.6873°
revolutions per day: 13.96914591
mean anomaly at epoch: 89.3144°
orbit number at epoch: 74796

The dashed part of the orbit path shows where the satellite is in the earth's shadow,  

DLR